[[{"header":{"parameterUnit":"m.s-1","parameterCategory":2,"la1":30.2991,"la2":30.254,"lo1":-89.0895,"lo2":-89.0444,"dy":0.0017,"dx":0.0017,"nx":28,"ny":28,"refTime":"2024-02-16T09:00:00:Z","depth":"0","parameterNumber":2,"parameterNumberName":"U-component_of_CURRENTS"},"data":[0,0,0,0,0,0,0,0,0,0,0,0,0,0,0,0,0,0,0,0,0,0,0,0,0,0,0,0,0,0,0,0,0,0,0,0,0,0,0,0,0,0,0,0,0,0,0,0,0,0,0,0,0,0,0,0,0,0,0.1851,0.185,0,0.1803,0.1803,0.1803,0.1759,0.1758,0.1757,0.1756,0.1735,0.1736,0.1736,0,0,0,0,0,0,0,0,0,0,0,0,0,0.2122,0.2116,0.1851,0.185,0.1849,0.1803,0.1803,0.1803,0.1759,0.1758,0.1757,0.1756,0.1735,0.1736,0.1736,0,0,0,0,0,0,0,0,0,0,0,0,0,0.2034,0.2114,0.1851,0.182,0.1817,0.1804,0.1803,0.1802,0.1759,0.1758,0.1757,0.1756,0.1735,0.1736,0.1736,0.176,0,0,0.1736,0.1736,0,0,0,0,0,0,0,0,0.2039,0.2024,0.1826,0.1822,0.1818,0.1784,0.1891,0.1789,0.1759,0.1783,0.1756,0.1755,0.1753,0.1752,0.1749,0.1759,0.1758,0.1736,0.1737,0.1737,0.1737,0,0,0,0,0,0,0,0.2045,0.2027,0.1835,0.1825,0.182,0.1883,0.1868,0.1872,0.1778,0.1781,0.1777,0.1769,0.1752,0.1748,0.1748,0.1757,0.1736,0.1737,0.1737,0.1737,0.1862,0.1865,0,0,0,0,0,0,0.2034,0.2031,0.1836,0.1833,0.1926,0.1878,0.1861,0.1798,0.1777,0.1772,0.177,0.1767,0.1749,0.1748,0.1747,0.1838,0.1737,0.1737,0.1737,0.1858,0.1862,0.1866,0,0,0,0,0,0,0.2039,0.2015,0.1838,0.1934,0.1915,0.1873,0.1804,0.1798,0.1796,0.1767,0.1763,0.1775,0.1748,0.1747,0.1779,0.1834,0.1737,0.1737,0.1855,0.186,0.1864,0.1978,0,0,0,0,0,0,0.2046,0.2016,0.1998,0.193,0.1909,0.1854,0.1804,0.1797,0.1791,0.1787,0.1771,0.1767,0.1747,0.1779,0.1779,0.1832,0.1737,0.1851,0.1857,0.1862,0.1971,0.1987,0.2,0,0,0,0,0,0.2055,0.2037,0.1995,0.1974,0.1871,0.1856,0.1853,0.1823,0.1793,0.1814,0.1805,0.1768,0.1817,0.1782,0.1781,0.1836,0.1848,0.1855,0.1862,0.1964,0.1983,0.2,0,0,0,0,0,0,0.2191,0.2028,0.1982,0.1925,0.1901,0.1848,0.187,0.1833,0.184,0.1838,0.1801,0.18,0.1852,0.1833,0.1794,0.1893,0.183,0.1837,0.1908,0.1926,0.194,0.1904,0.1737,0,0,0,0,0,0.2197,0.2115,0.2019,0.1992,0.197,0.1919,0.1915,0.1886,0.1868,0.1868,0.1853,0.1855,0.1882,0.1893,0.1906,0.1955,0.1943,0.1994,0.2009,0.2021,0.1995,0.2028,0.2042,0.1889,0.1889,0.1889,0,0,0.2249,0.2153,0.2113,0.2014,0.1987,0.1976,0.1916,0.1913,0.192,0.1868,0.1898,0.1904,0.1907,0.1967,0.1989,0.1956,0.2075,0.203,0.204,0.2006,0.2037,0.2051,0.2064,0.1894,0.1893,0.1892,0,0,0.232,0.2221,0.2176,0.2144,0.2086,0.2051,0.2049,0.1995,0.199,0.2018,0.1992,0.2024,0.2055,0.2065,0.2077,0.2181,0.2152,0.2202,0.2245,0.228,0.2291,0.2301,0.2368,0.2382,0.2209,0.2209,0.221,0,0.2403,0.2296,0.2192,0.2162,0.2144,0.2081,0.2079,0.2077,0.2053,0.2052,0.2049,0.2093,0.2101,0.2156,0.22,0.2211,0.2232,0.2176,0.2296,0.2305,0.2313,0.2378,0.2393,0.2216,0.2215,0.2214,0.2214,0,0.2418,0.2361,0.2356,0.2256,0.2246,0.2241,0.2195,0.2201,0.2186,0.2169,0.2217,0.2233,0.2243,0.2283,0.2274,0.2345,0.2346,0.2311,0.2243,0.2335,0.2399,0.2412,0.2225,0.2223,0.2221,0.2219,0,0,0.2532,0.2381,0.2388,0.2342,0.2279,0.2265,0.2291,0.2274,0.2274,0.2296,0.2307,0.238,0.2355,0.2366,0.2368,0.2406,0.2518,0.2388,0.2387,0.244,0.2626,0.2618,0.2631,0.2503,0.2505,0.2506,0.267,0,0.2584,0.2517,0.2442,0.2436,0.2392,0.2345,0.2365,0.2354,0.2352,0.2358,0.2378,0.2399,0.2399,0.2409,0.2453,0.2475,0.2547,0.2477,0.2538,0.254,0.2508,0.2643,0.2533,0.2667,0.2682,0.2684,0.2686,0,0.2609,0.255,0.2516,0.2441,0.2426,0.2432,0.2411,0.2419,0.2419,0.2418,0.2434,0.2429,0.2481,0.2467,0.257,0.2526,0.2588,0.2622,0.2629,0.2571,0.2553,0.2566,0.2689,0.2564,0.2705,0.2704,0.2702,0,0.2665,0.2605,0.2564,0.254,0.2464,0.2464,0.2447,0.2438,0.2432,0.2438,0.2439,0.2483,0.2499,0.257,0.2634,0.261,0.2751,0.2723,0.2793,0.2794,0.2682,0.2669,0.2662,0.2824,0.2823,0.2823,0.2823,0,0.2689,0.2665,0.2581,0.2552,0.2535,0.2487,0.2483,0.2467,0.2459,0.2454,0.2459,0.247,0.2522,0.2593,0.2662,0.277,0.2782,0.2821,0.2835,0.2728,0.2719,0.2584,0.2541,0.2829,0.2828,0.2827,0.2826,0,0.2712,0.2657,0.2604,0.2547,0.2534,0.2518,0.2477,0.2473,0.2466,0.246,0.2461,0.2479,0.2556,0.2637,0.2754,0.2803,0.2819,0.2949,0.2836,0.2833,0.2755,0.2724,0.2649,0.2569,0.3053,0.3054,0.3055,0,0.2679,0.2653,0.26,0.2576,0.2541,0.2513,0.2494,0.2473,0.2465,0.2464,0.2465,0.2525,0.2564,0.2735,0.2816,0.296,0.2848,0.2953,0.2878,0.2754,0.2731,0.2602,0.2529,0.2813,0.2811,0.281,0.2809,0,0.2639,0.2638,0.2604,0.257,0.2543,0.2502,0.2476,0.2474,0.2455,0.2469,0.2487,0.2519,0.2631,0.2695,0.2852,0.2913,0.2766,0.2935,0.2819,0.2559,0.2402,0.2329,0.2728,0.2799,0.28,0.2801,0.2801,0.2802,0.263,0.2607,0.259,0.2564,0.2532,0.2497,0.2482,0.2465,0.2467,0.2473,0.2503,0.2546,0.2593,0.2773,0.2799,0.2735,0.2731,0.2668,0.2658,0.255,0.24,0.2798,0.2864,0.2865,0.2866,0.2867,0.2868,0,0.2628,0.2609,0.2579,0.255,0.2533,0.2513,0.2476,0.2464,0.2477,0.2489,0.2519,0.2546,0.2576,0.2588,0.2584,0.2484,0.2339,0.2374,0.2139,0.2096,0.2466,0.2377,0.2321,0.2321,0.2321,0.2321,0.2321,0.2321,0.262,0.2609,0.2599,0.2572,0.2553,0.253,0.2518,0.2488,0.249,0.2463,0.2459,0.2456,0.2477,0.2402,0.227,0.2199,0.1969,0.1876,0.186,0.2086,0.2109,0.2132,0.2034,0.1907,0.1907,0.1363,0.1359,0.1356]},{"header":{"parameterUnit":"m.s-1","parameterCategory":2,"la1":30.2991,"la2":30.254,"lo1":-89.0895,"lo2":-89.0444,"dy":0.0017,"dx":0.0017,"nx":28,"ny":28,"refTime":"2024-02-16T09:00:00:Z","depth":"0","parameterNumber":3,"parameterNumberName":"V-component_of_CURRENTS"},"data":[0,0,0,0,0,0,0,0,0,0,0,0,0,0,0,0,0,0,0,0,0,0,0,0,0,0,0,0,0,0,0,0,0,0,0,0,0,0,0,0,0,0,0,0,0,0,0,0,0,0,0,0,0,0,0,0,0,0,-0.0357,-0.0356,0,-0.0333,-0.0333,-0.0333,-0.0378,-0.0379,-0.038,-0.0381,-0.0425,-0.0425,-0.0425,0,0,0,0,0,0,0,0,0,0,0,0,0,-0.0526,-0.0522,-0.0357,-0.0356,-0.0355,-0.0333,-0.0333,-0.0333,-0.0378,-0.0379,-0.038,-0.0381,-0.0424,-0.0425,-0.0425,0,0,0,0,0,0,0,0,0,0,0,0,0,-0.0478,-0.0521,-0.0357,-0.037,-0.037,-0.0333,-0.0333,-0.0333,-0.0378,-0.0379,-0.0381,-0.0382,-0.0424,-0.0425,-0.0425,-0.0401,0,0,-0.0427,-0.0427,0,0,0,0,0,0,0,0,-0.0481,-0.0473,-0.0369,-0.0369,-0.0369,-0.0354,-0.0408,-0.0357,-0.0378,-0.0382,-0.0381,-0.0383,-0.0402,-0.0404,-0.0405,-0.0403,-0.0405,-0.0427,-0.0427,-0.0427,-0.0427,0,0,0,0,0,0,0,-0.0484,-0.0474,-0.0354,-0.0368,-0.0368,-0.0405,-0.04,-0.0399,-0.0391,-0.0382,-0.0383,-0.037,-0.0404,-0.0404,-0.0407,-0.0405,-0.0427,-0.0427,-0.0427,-0.0428,-0.0402,-0.0401,0,0,0,0,0,0,-0.0467,-0.0476,-0.0354,-0.0352,-0.0422,-0.04,-0.0395,-0.0363,-0.0389,-0.0392,-0.0369,-0.0372,-0.0403,-0.0406,-0.0408,-0.0422,-0.0427,-0.0428,-0.0428,-0.0403,-0.0401,-0.04,0,0,0,0,0,0,-0.047,-0.0455,-0.0355,-0.0411,-0.04,-0.0395,-0.0359,-0.0362,-0.0363,-0.0378,-0.0384,-0.0368,-0.0404,-0.0408,-0.041,-0.0423,-0.0428,-0.0428,-0.0404,-0.0402,-0.0401,-0.0424,0,0,0,0,0,0,-0.0475,-0.0456,-0.0441,-0.0408,-0.0395,-0.0336,-0.0357,-0.036,-0.035,-0.0354,-0.0378,-0.0384,-0.0406,-0.0409,-0.0411,-0.0424,-0.0429,-0.0405,-0.0403,-0.0401,-0.0424,-0.0423,-0.0422,0,0,0,0,0,-0.0481,-0.0454,-0.044,-0.0426,-0.0369,-0.0334,-0.0332,-0.034,-0.0348,-0.0348,-0.0363,-0.0383,-0.0399,-0.0409,-0.0411,-0.0424,-0.0406,-0.0404,-0.0401,-0.0425,-0.0423,-0.0422,0,0,0,0,0,0,-0.0545,-0.0453,-0.0439,-0.0392,-0.0364,-0.034,-0.0336,-0.0331,-0.0341,-0.0349,-0.0371,-0.0376,-0.0383,-0.0386,-0.0396,-0.0406,-0.0405,-0.0403,-0.0422,-0.0421,-0.042,-0.0438,-0.0429,0,0,0,0,0,-0.0539,-0.0485,-0.0425,-0.0395,-0.0371,-0.035,-0.0339,-0.0336,-0.033,-0.0336,-0.0349,-0.036,-0.0372,-0.0383,-0.0387,-0.0391,-0.0373,-0.0397,-0.0396,-0.0395,-0.0408,-0.0383,-0.0382,-0.0393,-0.0393,-0.0393,0,0,-0.0564,-0.0502,-0.048,-0.0404,-0.0381,-0.036,-0.0349,-0.0324,-0.033,-0.0337,-0.0355,-0.0354,-0.0368,-0.038,-0.0383,-0.0389,-0.0375,-0.0393,-0.0393,-0.0406,-0.0381,-0.038,-0.038,-0.0392,-0.0392,-0.0392,0,0,-0.0581,-0.0518,-0.048,-0.0443,-0.0386,-0.0369,-0.0356,-0.032,-0.0328,-0.0324,-0.0338,-0.0344,-0.0351,-0.0375,-0.0386,-0.0375,-0.0365,-0.0368,-0.0393,-0.0368,-0.0368,-0.0368,-0.0318,-0.0313,-0.0376,-0.0376,-0.0376,0,-0.0628,-0.0551,-0.0476,-0.0434,-0.0415,-0.037,-0.0356,-0.0349,-0.0331,-0.0335,-0.0333,-0.0342,-0.0356,-0.0383,-0.0391,-0.0379,-0.0348,-0.0403,-0.037,-0.0369,-0.0369,-0.0318,-0.0313,-0.0377,-0.0377,-0.0377,-0.0377,0,-0.0614,-0.0558,-0.0535,-0.0461,-0.0437,-0.0411,-0.0376,-0.0367,-0.036,-0.0355,-0.0359,-0.0365,-0.0374,-0.0377,-0.0391,-0.0396,-0.0367,-0.0367,-0.0381,-0.0369,-0.0316,-0.031,-0.0378,-0.0378,-0.0377,-0.0377,0,0,-0.0729,-0.0557,-0.0557,-0.051,-0.0444,-0.0418,-0.0421,-0.0403,-0.0396,-0.039,-0.0388,-0.0419,-0.0404,-0.0415,-0.0417,-0.0412,-0.038,-0.0395,-0.0393,-0.0359,-0.03,-0.0276,-0.0267,-0.0372,-0.0371,-0.0371,-0.0256,0,-0.0759,-0.0657,-0.0588,-0.0546,-0.0492,-0.0452,-0.0452,-0.0435,-0.0418,-0.04,-0.0408,-0.0397,-0.0423,-0.0413,-0.0418,-0.038,-0.0368,-0.041,-0.0304,-0.0301,-0.0294,-0.0262,-0.0225,-0.012,-0.0249,-0.0248,-0.0248,0,-0.0792,-0.0702,-0.0637,-0.0531,-0.0514,-0.0502,-0.0472,-0.0461,-0.0434,-0.0419,-0.0416,-0.0396,-0.0396,-0.0402,-0.0362,-0.0381,-0.0351,-0.0325,-0.032,-0.0294,-0.0268,-0.0155,-0.0104,-0.0161,-0.0238,-0.0239,-0.0239,0,-0.0874,-0.0757,-0.0694,-0.066,-0.0544,-0.0537,-0.0504,-0.0473,-0.0444,-0.0417,-0.0377,-0.0381,-0.0342,-0.0331,-0.0288,-0.0316,-0.0214,-0.0239,-0.0189,-0.0185,-0.0134,-0.0127,-0.0142,-0.021,-0.0211,-0.0211,-0.0211,0,-0.092,-0.0877,-0.0715,-0.0676,-0.0622,-0.0557,-0.0521,-0.0491,-0.0437,-0.038,-0.038,-0.0325,-0.032,-0.0261,-0.0256,-0.0187,-0.0183,-0.0186,-0.0159,-0.0136,-0.0131,-0.0163,-0.0223,-0.0206,-0.0207,-0.0208,-0.0209,0,-0.1,-0.0899,-0.0807,-0.0677,-0.064,-0.0602,-0.0496,-0.0452,-0.0415,-0.0334,-0.0316,-0.0255,-0.0178,-0.0156,-0.0098,-0.0115,-0.0089,-0.0051,-0.0013,0.0014,-0.003,-0.0092,-0.0078,-0.0098,0.0012,0.0014,0.0015,0,-0.1011,-0.0963,-0.0805,-0.0733,-0.0667,-0.0588,-0.0521,-0.0453,-0.0389,-0.0282,-0.0228,-0.0138,-0.0065,0.003,0.0038,0.0077,-0.0003,0.0107,0.0032,-0.0025,-0.0073,-0.0122,-0.0145,0.0114,0.0116,0.0118,0.0119,0,-0.102,-0.0968,-0.0872,-0.073,-0.0637,-0.0532,-0.0429,-0.0376,-0.0283,-0.0204,-0.0083,-0.0022,0.0073,0.0151,0.019,0.0179,0.0053,0.0135,0.0068,-0.0008,-0.0053,-0.006,0.0043,0.0131,0.013,0.0129,0.0128,0.0128,-0.1025,-0.095,-0.0815,-0.0698,-0.0591,-0.0469,-0.0392,-0.0276,-0.0163,-0.0004,0.0037,0.0212,0.0257,0.0319,0.0253,0.0196,0.0149,0.0166,0.01,0.0058,0.001,0.0142,0.0254,0.0253,0.0253,0.0252,0.0252,0,-0.0991,-0.0886,-0.0774,-0.0616,-0.0518,-0.0464,-0.0316,-0.0232,-0.009,0.0128,0.025,0.0475,0.0485,0.0445,0.0368,0.0221,0.0117,0.0125,0.0052,0.0032,0.0164,0.0137,0.0237,0.0237,0.0237,0.0237,0.0237,0.0237,-0.094,-0.0819,-0.0753,-0.0578,-0.0483,-0.0346,-0.0264,-0.0135,0.0038,0.035,0.0593,0.0743,0.0804,0.05,0.0273,0.0165,0.0009,-0.0023,-0.0102,-0.0033,-0.0035,-0.0038,-0.0077,-0.0023,-0.0024,-0.0194,-0.0196,-0.0197]}],[{"header":{"parameterUnit":"m.s-1","parameterCategory":2,"la1":30.2991,"la2":30.254,"lo1":-89.0895,"lo2":-89.0444,"dy":0.0017,"dx":0.0017,"nx":28,"ny":28,"refTime":"2024-02-16T09:00:00:Z","depth":"2","parameterNumber":2,"parameterNumberName":"U-component_of_CURRENTS"},"data":[0,0,0,0,0,0,0,0,0,0,0,0,0,0,0,0,0,0,0,0,0,0,0,0,0,0,0,0,0,0,0,0,0,0,0,0,0,0,0,0,0,0,0,0,0,0,0,0,0,0,0,0,0,0,0,0,0,0,0.0962,0.0963,0,0.0969,0.0968,0.0968,0.0967,0.0967,0.0968,0.0968,0.0958,0.0958,0.0957,0,0,0,0,0,0,0,0,0,0,0,0,0,0.0904,0.0905,0.0962,0.0963,0.0963,0.0969,0.0968,0.0968,0.0967,0.0967,0.0968,0.0968,0.0958,0.0958,0.0957,0,0,0,0,0,0,0,0,0,0,0,0,0,0.0918,0.0906,0.0962,0.0966,0.0967,0.0969,0.0968,0.0968,0.0967,0.0967,0.0968,0.0968,0.0958,0.0958,0.0957,0.0945,0,0,0.0955,0.0954,0,0,0,0,0,0,0,0,0.0918,0.092,0.0965,0.0966,0.0967,0.0971,0.0945,0.0961,0.0967,0.0963,0.0968,0.0968,0.0963,0.0962,0.0957,0.0944,0.0944,0.0955,0.0954,0.0954,0.0954,0,0,0,0,0,0,0,0.0917,0.092,0.0961,0.0966,0.0967,0.0953,0.0955,0.0947,0.0957,0.0963,0.0964,0.0971,0.0963,0.0958,0.0957,0.0944,0.0955,0.0954,0.0954,0.0953,0.0997,0.0998,0,0,0,0,0,0,0.0926,0.0919,0.0961,0.0961,0.0947,0.0954,0.0956,0.0966,0.0958,0.0958,0.0971,0.0971,0.0959,0.0958,0.0957,0.0989,0.0954,0.0953,0.0953,0.0995,0.0997,0.0999,0,0,0,0,0,0,0.0925,0.093,0.096,0.0943,0.0947,0.0955,0.0966,0.0966,0.098,0.0965,0.0964,0.0987,0.0959,0.0958,0.096,0.0986,0.0953,0.0952,0.0993,0.0996,0.0998,0.1022,0,0,0,0,0,0,0.0923,0.0929,0.0936,0.0944,0.0948,0.0967,0.0966,0.0966,0.0985,0.0985,0.0978,0.0977,0.0959,0.0961,0.0959,0.0985,0.0952,0.0991,0.0995,0.0997,0.102,0.1025,0.103,0,0,0,0,0,0.0921,0.0921,0.0936,0.0941,0.0958,0.0968,0.0968,0.0972,0.0985,0.0988,0.0986,0.0978,0.098,0.096,0.0958,0.0985,0.099,0.0994,0.0997,0.1017,0.1024,0.103,0,0,0,0,0,0,0.0896,0.0921,0.0938,0.0947,0.0964,0.097,0.097,0.0986,0.0987,0.0989,0.0981,0.0979,0.0994,0.099,0.0969,0.1011,0.0991,0.0994,0.1007,0.1014,0.1019,0.1046,0.0951,0,0,0,0,0,0.0898,0.0907,0.0933,0.0942,0.0952,0.097,0.0976,0.0985,0.099,0.0992,0.0993,0.0999,0.1005,0.1009,0.1006,0.1019,0.1064,0.1043,0.1049,0.1053,0.1077,0.1174,0.1191,0.1011,0.1011,0.1011,0,0,0.0892,0.0908,0.0914,0.0938,0.095,0.0963,0.0973,0.0987,0.1001,0.099,0.1005,0.1011,0.1012,0.1026,0.1035,0.1026,0.1126,0.1058,0.1061,0.1083,0.118,0.1198,0.1213,0.1013,0.1013,0.1013,0,0,0.0885,0.0902,0.0911,0.0925,0.0952,0.0961,0.0974,0.0995,0.1008,0.1025,0.1028,0.1057,0.1056,0.1071,0.1076,0.1116,0.1148,0.112,0.1169,0.1263,0.1279,0.1293,0.1362,0.1383,0.1126,0.1126,0.1126,0,0.0884,0.0903,0.0914,0.0927,0.0945,0.0967,0.0987,0.0994,0.1016,0.1051,0.1034,0.1097,0.1083,0.1134,0.1141,0.1128,0.1185,0.1136,0.1271,0.1286,0.1301,0.1368,0.1391,0.1128,0.1127,0.1127,0.1127,0,0.0885,0.0906,0.091,0.0939,0.0951,0.0972,0.0993,0.1018,0.1045,0.1078,0.1143,0.1138,0.1192,0.1186,0.1166,0.1267,0.1273,0.1262,0.1253,0.132,0.1387,0.141,0.113,0.1129,0.1129,0.1129,0,0,0.0887,0.0911,0.092,0.095,0.0968,0.0991,0.101,0.1067,0.1131,0.1149,0.1235,0.1243,0.1284,0.1295,0.1293,0.1358,0.1482,0.1356,0.136,0.1423,0.1693,0.1511,0.1518,0.1504,0.1508,0.1512,0.1694,0,0.0902,0.0939,0.0939,0.0985,0.1013,0.1034,0.1063,0.1113,0.1166,0.1246,0.128,0.1346,0.1312,0.135,0.1414,0.1459,0.1547,0.1434,0.1622,0.1627,0.1455,0.154,0.1419,0.1556,0.1717,0.1721,0.1724,0,0.0913,0.0944,0.0992,0.1048,0.1065,0.1095,0.1191,0.122,0.1316,0.1355,0.1438,0.1469,0.155,0.1514,0.167,0.1605,0.1669,0.1703,0.1711,0.1553,0.1487,0.1518,0.1591,0.1762,0.1759,0.1756,0.1754,0,0.0942,0.0986,0.1038,0.1054,0.1109,0.1155,0.1196,0.1283,0.1335,0.1448,0.1501,0.1609,0.1656,0.1762,0.1788,0.1769,0.1951,0.1935,0.1846,0.1834,0.1772,0.1744,0.2098,0.2097,0.2097,0.2096,0.2096,0,0.0966,0.1015,0.107,0.1107,0.119,0.1211,0.1318,0.1369,0.1455,0.1525,0.1579,0.1639,0.1726,0.1806,0.1859,0.1893,0.202,0.1881,0.1879,0.177,0.1741,0.1948,0.1928,0.2103,0.2102,0.21,0.2099,0,0.1002,0.1028,0.1101,0.1179,0.1208,0.1281,0.1367,0.1435,0.1508,0.1595,0.1624,0.1703,0.1785,0.1845,0.1993,0.1953,0.2021,0.2013,0.1844,0.1815,0.1841,0.1821,0.1976,0.1972,0.1968,0.1964,0.1962,0,0.1027,0.1066,0.1162,0.1205,0.1252,0.1344,0.1392,0.1462,0.1511,0.1617,0.1643,0.1742,0.1768,0.1868,0.1853,0.1912,0.1975,0.1793,0.1714,0.1851,0.1835,0.1821,0.1806,0.167,0.1665,0.1661,0.1658,0,0.1083,0.1121,0.1182,0.1264,0.1329,0.1377,0.1446,0.1467,0.1528,0.1597,0.1658,0.1695,0.1739,0.1687,0.1679,0.1699,0.1756,0.1704,0.1972,0.1657,0.156,0.1543,0.1541,0.1622,0.1625,0.1628,0.163,0.1631,0.1136,0.1188,0.1256,0.1324,0.1375,0.1378,0.1376,0.1417,0.1462,0.1491,0.1581,0.1558,0.1542,0.1437,0.1429,0.142,0.1542,0.1489,0.1505,0.1525,0.1394,0.1288,0.1277,0.1279,0.128,0.1281,0.1282,0,0.1196,0.1242,0.1301,0.1352,0.1351,0.1399,0.1379,0.1323,0.1313,0.1371,0.1411,0.1225,0.1187,0.1195,0.1127,0.111,0.1156,0.1072,0.114,0.1176,0.1208,0.1063,0.0859,0.0857,0.0856,0.0854,0,0,0.1241,0.1296,0.1303,0.1299,0.1326,0.1291,0.1248,0.116,0.1124,0.1069,0.1045,0.1117,0.1115,0.0933,0.0941,0.0894,0.1031,0.0865,0.1208,0.1323,0.1353,0.1452,0.1267,0,0,0,0,0]},{"header":{"parameterUnit":"m.s-1","parameterCategory":2,"la1":30.2991,"la2":30.254,"lo1":-89.0895,"lo2":-89.0444,"dy":0.0017,"dx":0.0017,"nx":28,"ny":28,"refTime":"2024-02-16T09:00:00:Z","depth":"2","parameterNumber":3,"parameterNumberName":"V-component_of_CURRENTS"},"data":[0,0,0,0,0,0,0,0,0,0,0,0,0,0,0,0,0,0,0,0,0,0,0,0,0,0,0,0,0,0,0,0,0,0,0,0,0,0,0,0,0,0,0,0,0,0,0,0,0,0,0,0,0,0,0,0,0,0,0.0124,0.0124,0,0.0096,0.0096,0.0096,0.0075,0.0074,0.0074,0.0074,0.0,-0.0001,-0.0003,0,0,0,0,0,0,0,0,0,0,0,0,0,0.0132,0.0132,0.0124,0.0124,0.0124,0.0096,0.0096,0.0096,0.0075,0.0074,0.0074,0.0074,0.0001,-0.0001,-0.0003,0,0,0,0,0,0,0,0,0,0,0,0,0,0.0119,0.0132,0.0124,0.011,0.0108,0.0096,0.0096,0.0096,0.0075,0.0074,0.0074,0.0074,0.0002,-0.0001,-0.0003,-0.0014,0,0,-0.0012,-0.0013,0,0,0,0,0,0,0,0,0.012,0.0119,0.0112,0.0111,0.0109,0.0089,0.0072,0.0057,0.0075,0.0087,0.0074,0.0074,0.0026,0.0021,0.0017,-0.0017,-0.0021,-0.0012,-0.0013,-0.0015,-0.0015,0,0,0,0,0,0,0,0.0121,0.012,0.0113,0.0112,0.011,0.0095,0.0093,0.0069,0.0058,0.0086,0.0085,0.0082,0.0025,0.002,0.0015,-0.0022,-0.0012,-0.0014,-0.0016,-0.0017,-0.0081,-0.0081,0,0,0,0,0,0,0.0126,0.0121,0.0114,0.0112,0.0114,0.0096,0.0093,0.0095,0.0059,0.0054,0.0082,0.0081,0.0025,0.0019,0.0013,0.0004,-0.0015,-0.0017,-0.0019,-0.0081,-0.0081,-0.0081,0,0,0,0,0,0,0.0127,0.0126,0.0115,0.0116,0.0113,0.0096,0.0098,0.0095,0.0086,0.0056,0.005,0.0076,0.0024,0.0016,-0.0004,0.0,-0.0018,-0.0021,-0.0081,-0.0081,-0.0081,-0.0018,0,0,0,0,0,0,0.0127,0.0126,0.0126,0.0116,0.0113,0.0111,0.0098,0.0095,0.0085,0.0083,0.0049,0.0042,0.0023,0.0001,-0.0006,-0.0004,-0.0023,-0.0081,-0.0081,-0.0081,-0.002,-0.0016,-0.0013,0,0,0,0,0,0.0127,0.0133,0.0127,0.0126,0.0115,0.0112,0.0109,0.0095,0.0085,0.0085,0.0065,0.0043,-0.0006,-0.0001,-0.0009,-0.0007,-0.0081,-0.0081,-0.0081,-0.0022,-0.0017,-0.0013,0,0,0,0,0,0,0.0134,0.0131,0.0124,0.0128,0.012,0.0108,0.0106,0.0095,0.0079,0.0074,0.0045,0.0038,0.0019,-0.0005,0.0001,-0.0029,-0.0049,-0.0051,-0.0001,0.0003,0.0007,0.0056,-0.0025,0,0,0,0,0,0.0137,0.0141,0.0133,0.0134,0.0132,0.0118,0.0112,0.0104,0.009,0.0082,0.0059,0.0032,0.0012,0.0,-0.0025,-0.0038,-0.0026,-0.0045,-0.0041,-0.0038,-0.0005,0.0011,0.0021,-0.0082,-0.0082,-0.0082,0,0,0.0138,0.0138,0.0139,0.0136,0.0129,0.0136,0.0114,0.0109,0.0116,0.0076,0.0072,0.0042,0.001,-0.0002,-0.0013,-0.002,-0.0003,-0.0038,-0.0034,-0.0003,0.0012,0.0023,0.0032,-0.0082,-0.0082,-0.0082,0,0,0.0148,0.0145,0.0153,0.0154,0.0147,0.0143,0.0142,0.0129,0.0125,0.0116,0.009,0.0076,0.0033,0.0028,0.0015,0.0024,0.0013,-0.0005,0.0058,0.0073,0.0082,0.0091,0.0124,0.0135,-0.0,0.0,0.0,0,0.0144,0.0165,0.0153,0.0164,0.0177,0.015,0.0169,0.0159,0.0141,0.0157,0.012,0.0097,0.0057,0.0074,0.0071,0.0037,0.0047,0.0046,0.0082,0.009,0.0098,0.013,0.0142,0.0003,0.0003,0.0002,0.0002,0,0.0168,0.0183,0.0189,0.0202,0.021,0.0222,0.0216,0.0219,0.0205,0.0206,0.0212,0.0166,0.0164,0.0132,0.0102,0.0135,0.0125,0.0084,0.008,0.0113,0.0143,0.0155,0.0007,0.0006,0.0005,0.0005,0,0,0.0162,0.0199,0.02,0.0232,0.0238,0.0255,0.0271,0.03,0.0339,0.03,0.0349,0.0298,0.0284,0.027,0.0225,0.0231,0.0278,0.0184,0.0184,0.0237,0.033,0.0231,0.0233,0.0239,0.0241,0.0243,0.0331,0,0.0184,0.0229,0.024,0.0294,0.0327,0.0332,0.0359,0.0381,0.0393,0.0427,0.0394,0.04,0.0331,0.0323,0.0325,0.0288,0.0309,0.0259,0.0274,0.0276,0.0199,0.0243,0.0221,0.029,0.0342,0.0344,0.0345,0,0.0207,0.0244,0.0298,0.0377,0.0392,0.0412,0.0491,0.0512,0.055,0.0559,0.0573,0.0543,0.0547,0.0465,0.0469,0.0439,0.0403,0.0372,0.0373,0.0274,0.0198,0.0261,0.0308,0.0364,0.0362,0.0361,0.036,0,0.0235,0.0294,0.0348,0.0369,0.0435,0.0467,0.0498,0.0552,0.0598,0.0638,0.0668,0.0676,0.0661,0.0636,0.055,0.052,0.0551,0.0498,0.0391,0.0385,0.0369,0.0355,0.052,0.052,0.052,0.052,0.052,0,0.0276,0.0325,0.0363,0.0398,0.048,0.0504,0.0591,0.0629,0.0686,0.0756,0.0727,0.0761,0.0696,0.0687,0.0621,0.0543,0.0609,0.0433,0.0405,0.0385,0.0373,0.043,0.0418,0.0523,0.0522,0.0522,0.0521,0,0.0315,0.0332,0.0407,0.0472,0.0496,0.0552,0.0636,0.0707,0.0737,0.0824,0.083,0.0839,0.0808,0.0749,0.0706,0.0615,0.0559,0.0511,0.0495,0.0461,0.0379,0.0369,0.0437,0.0434,0.0432,0.043,0.0428,0,0.0356,0.0386,0.0454,0.0504,0.0534,0.0608,0.0669,0.0724,0.0805,0.0866,0.0919,0.0895,0.0879,0.078,0.0632,0.0531,0.0527,0.0429,0.0348,0.0406,0.0373,0.0366,0.036,0.0372,0.037,0.0368,0.0367,0,0.0438,0.0434,0.049,0.0571,0.0637,0.0727,0.0813,0.0885,0.0952,0.0978,0.1023,0.0997,0.087,0.0724,0.0546,0.0465,0.0439,0.0387,0.0491,0.0359,0.0341,0.0308,0.0306,0.0353,0.0355,0.0356,0.0356,0.0357,0.0495,0.0537,0.058,0.0667,0.0739,0.0847,0.0937,0.0993,0.1069,0.1131,0.1109,0.1037,0.0867,0.0596,0.0447,0.0292,0.0309,0.0256,0.0264,0.0273,0.0212,0.0187,0.0162,0.0162,0.0163,0.0163,0.0163,0,0.0579,0.0605,0.0686,0.0789,0.0888,0.089,0.1043,0.1108,0.1164,0.1156,0.1145,0.0934,0.0749,0.0573,0.0305,0.0143,0.016,0.011,0.0173,0.0186,0.0198,0.0135,0.0065,0.0064,0.0064,0.0063,0,0,0.0629,0.0706,0.0738,0.0904,0.0965,0.1109,0.1195,0.1212,0.1233,0.1167,0.1082,0.104,0.0779,0.057,0.0361,0.0216,0.0244,0.0188,0.0279,0.039,0.0405,0.0287,0.0205,0,0,0,0,0]}],[{"header":{"parameterUnit":"m.s-1","parameterCategory":2,"la1":30.2991,"la2":30.254,"lo1":-89.0895,"lo2":-89.0444,"dy":0.0017,"dx":0.0017,"nx":28,"ny":28,"refTime":"2024-02-16T09:00:00:Z","depth":"4","parameterNumber":2,"parameterNumberName":"U-component_of_CURRENTS"},"data":[0,0,0,0,0,0,0,0,0,0,0,0,0,0,0,0,0,0,0,0,0,0,0,0,0,0,0,0,0,0,0,0,0,0,0,0,0,0,0,0,0,0,0,0,0,0,0,0,0,0,0,0,0,0,0,0,0,0,0.0169,0.0169,0,0.0213,0.0214,0.0214,0.0246,0.0247,0.0247,0.0248,0.0318,0.0319,0.032,0,0,0,0,0,0,0,0,0,0,0,0,0,0.005,0.0052,0.0168,0.0169,0.017,0.0213,0.0214,0.0214,0.0246,0.0247,0.0247,0.0248,0.0317,0.0319,0.032,0,0,0,0,0,0,0,0,0,0,0,0,0,0.0096,0.0053,0.0168,0.0194,0.0197,0.0213,0.0214,0.0214,0.0246,0.0247,0.0248,0.0248,0.0317,0.0319,0.0321,0.0317,0,0,0.0327,0.0328,0,0,0,0,0,0,0,0,0.0094,0.01,0.0189,0.0192,0.0195,0.0228,0.0198,0.0251,0.0246,0.0224,0.0248,0.0249,0.0291,0.0295,0.0297,0.032,0.0323,0.0327,0.0328,0.0329,0.033,0,0,0,0,0,0,0,0.009,0.0098,0.0183,0.019,0.0194,0.0182,0.019,0.0207,0.0251,0.0226,0.0229,0.0239,0.0293,0.0295,0.0299,0.0324,0.0327,0.0329,0.033,0.0331,0.0403,0.0404,0,0,0,0,0,0,0.0094,0.0096,0.0182,0.0185,0.0149,0.0184,0.0192,0.0214,0.025,0.0257,0.0238,0.024,0.0291,0.0297,0.0302,0.0339,0.0329,0.0331,0.0332,0.0403,0.0403,0.0404,0,0,0,0,0,0,0.0091,0.0101,0.018,0.0142,0.0152,0.0186,0.0209,0.0214,0.023,0.0259,0.0266,0.025,0.0292,0.0299,0.0332,0.034,0.0332,0.0334,0.0402,0.0403,0.0404,0.0388,0,0,0,0,0,0,0.0088,0.01,0.0112,0.0143,0.0155,0.0191,0.0209,0.0215,0.0235,0.0239,0.0272,0.0278,0.0293,0.0329,0.0334,0.0343,0.0335,0.0401,0.0402,0.0404,0.0387,0.0388,0.0389,0,0,0,0,0,0.0083,0.0094,0.0113,0.0123,0.0172,0.0192,0.0195,0.0219,0.0235,0.0237,0.0268,0.0278,0.0341,0.0331,0.0336,0.0347,0.04,0.0402,0.0403,0.0387,0.0388,0.0389,0,0,0,0,0,0,0.0043,0.0099,0.0121,0.0147,0.017,0.0198,0.0206,0.0223,0.0247,0.026,0.0284,0.0293,0.0321,0.034,0.0328,0.0373,0.0373,0.0376,0.0359,0.036,0.036,0.0369,0.0337,0,0,0,0,0,0.0042,0.0068,0.0112,0.0131,0.0148,0.0179,0.019,0.0211,0.0238,0.025,0.0274,0.0306,0.0329,0.035,0.0368,0.0395,0.041,0.0407,0.0408,0.0408,0.0421,0.0461,0.0466,0.0409,0.0409,0.0409,0,0,0.0033,0.0065,0.008,0.0124,0.0148,0.0168,0.0187,0.0212,0.023,0.0254,0.0284,0.0304,0.0335,0.0362,0.0377,0.0382,0.0426,0.041,0.041,0.0423,0.0463,0.0469,0.0474,0.0411,0.041,0.041,0,0,0.002,0.0057,0.0076,0.0099,0.0141,0.0161,0.0171,0.0209,0.0229,0.0258,0.0282,0.0311,0.0345,0.0371,0.0389,0.0407,0.0422,0.0414,0.0433,0.0471,0.0476,0.0481,0.0477,0.0481,0.0423,0.0423,0.0423,0,0.0004,0.0043,0.0079,0.0101,0.0125,0.016,0.0184,0.0201,0.0242,0.027,0.0268,0.0333,0.035,0.0397,0.0403,0.0408,0.0423,0.0423,0.0472,0.0477,0.0482,0.0477,0.0482,0.0422,0.0422,0.0422,0.0422,0,0.0013,0.0041,0.0051,0.0099,0.0123,0.0146,0.0189,0.0213,0.0242,0.027,0.0318,0.034,0.0391,0.039,0.0403,0.0452,0.0446,0.0458,0.0466,0.0487,0.0479,0.0485,0.0421,0.0422,0.0422,0.0422,0,0,-0.0009,0.0048,0.0054,0.0083,0.0132,0.0158,0.0189,0.024,0.0287,0.0304,0.0361,0.0383,0.0412,0.0435,0.0453,0.0479,0.0508,0.049,0.0492,0.0479,0.0569,0.0527,0.0529,0.0536,0.0538,0.0539,0.0538,0,-0.001,0.003,0.0062,0.0102,0.0133,0.0177,0.0214,0.0264,0.0307,0.0364,0.039,0.0449,0.0426,0.0468,0.0485,0.0519,0.0528,0.0505,0.0559,0.0559,0.0515,0.0537,0.0544,0.0542,0.0544,0.0545,0.0545,0,0.0001,0.0027,0.0069,0.0136,0.0158,0.0189,0.0278,0.032,0.0398,0.0435,0.0484,0.0515,0.0562,0.0542,0.0583,0.0575,0.0573,0.0575,0.0576,0.0553,0.053,0.0528,0.0556,0.0555,0.0554,0.0553,0.0553,0,-0.001,0.004,0.0078,0.0098,0.017,0.0212,0.0267,0.0351,0.0403,0.0502,0.0548,0.0596,0.0644,0.065,0.0638,0.0635,0.0664,0.0664,0.0607,0.0602,0.0646,0.0642,0.0686,0.0686,0.0686,0.0686,0.0686,0,-0.0009,0.002,0.0083,0.0104,0.0174,0.0234,0.0328,0.0386,0.0474,0.0541,0.0602,0.0646,0.0681,0.0692,0.0666,0.0645,0.0686,0.0616,0.0612,0.0634,0.0628,0.0648,0.0643,0.0686,0.0686,0.0686,0.0686,0,-0.0018,0.0015,0.006,0.0136,0.0172,0.0235,0.0357,0.0412,0.051,0.0597,0.0633,0.0705,0.074,0.0725,0.0742,0.0691,0.0671,0.0643,0.064,0.0635,0.0573,0.0568,0.0606,0.0605,0.0604,0.0603,0.0602,0,-0.0017,0.0003,0.0081,0.0116,0.0156,0.0257,0.0318,0.0423,0.0477,0.0615,0.0639,0.0717,0.075,0.0722,0.0719,0.0668,0.0647,0.0621,0.0621,0.0578,0.0571,0.0568,0.0564,0.0601,0.0601,0.06,0.06,0,-0.0023,0.0004,0.0038,0.0107,0.017,0.0246,0.0342,0.0379,0.0499,0.0576,0.0646,0.0674,0.071,0.0708,0.0671,0.0627,0.064,0.061,0.0612,0.0612,0.0572,0.0565,0.0563,0.0596,0.0597,0.0597,0.0597,0,-0.0026,-0.0004,0.0038,0.0102,0.0161,0.0219,0.0284,0.0357,0.0428,0.0565,0.058,0.0652,0.0711,0.0685,0.0644,0.0612,0.0607,0.057,0.0574,0.0578,0.0567,0.0512,0.0524,0,0,0,0,0,-0.0019,-0.0,0.0037,0.0102,0.0143,0.0185,0.0282,0.034,0.0447,0.0477,0.0533,0.0563,0.0578,0.0605,0.0565,0.0613,0.0587,0.0561,0.0542,0.0577,0.0581,0.057,0,0,0,0,0,0,-0.0016,0.0015,0.0028,0.007,0.0103,0.0162,0.0216,0.0288,0.0322,0.0426,0.0435,0.0509,0.052,0.0582,0.0546,0.0549,0.052,0.0595,0.0593,0.0574,0.0578,0.0581,0.0572,0,0,0,0,0]},{"header":{"parameterUnit":"m.s-1","parameterCategory":2,"la1":30.2991,"la2":30.254,"lo1":-89.0895,"lo2":-89.0444,"dy":0.0017,"dx":0.0017,"nx":28,"ny":28,"refTime":"2024-02-16T09:00:00:Z","depth":"4","parameterNumber":3,"parameterNumberName":"V-component_of_CURRENTS"},"data":[0,0,0,0,0,0,0,0,0,0,0,0,0,0,0,0,0,0,0,0,0,0,0,0,0,0,0,0,0,0,0,0,0,0,0,0,0,0,0,0,0,0,0,0,0,0,0,0,0,0,0,0,0,0,0,0,0,0,0.0203,0.0203,0,0.0184,0.0184,0.0184,0.0187,0.0188,0.0188,0.0188,0.0141,0.014,0.0138,0,0,0,0,0,0,0,0,0,0,0,0,0,0.023,0.0229,0.0203,0.0203,0.0203,0.0184,0.0184,0.0183,0.0187,0.0188,0.0188,0.0188,0.0142,0.014,0.0138,0,0,0,0,0,0,0,0,0,0,0,0,0,0.0215,0.0229,0.0203,0.0203,0.0202,0.0184,0.0184,0.0183,0.0187,0.0188,0.0188,0.0189,0.0143,0.014,0.0138,0.0112,0,0,0.0131,0.013,0,0,0,0,0,0,0,0,0.0216,0.0214,0.0203,0.0203,0.0202,0.0189,0.0176,0.0158,0.0187,0.0193,0.0188,0.0189,0.0154,0.0151,0.0146,0.011,0.0108,0.013,0.0129,0.0128,0.0127,0,0,0,0,0,0,0,0.0217,0.0215,0.0196,0.0203,0.0202,0.0199,0.0197,0.0173,0.017,0.0192,0.0192,0.019,0.0154,0.0149,0.0145,0.0107,0.0131,0.0128,0.0127,0.0126,0.0055,0.0054,0,0,0,0,0,0,0.022,0.0216,0.0196,0.0195,0.0211,0.0198,0.0196,0.0192,0.0171,0.0168,0.019,0.0191,0.0152,0.0148,0.0144,0.0142,0.0128,0.0126,0.0124,0.0055,0.0055,0.0054,0,0,0,0,0,0,0.022,0.0218,0.0197,0.0205,0.0202,0.0197,0.0192,0.0192,0.0192,0.017,0.0167,0.0192,0.0153,0.0147,0.0128,0.014,0.0125,0.0123,0.0056,0.0055,0.0054,0.012,0,0,0,0,0,0,0.0221,0.0218,0.0218,0.0205,0.0202,0.0193,0.0192,0.0191,0.019,0.019,0.017,0.0166,0.0153,0.0132,0.0126,0.0136,0.0121,0.0056,0.0056,0.0055,0.0119,0.0122,0.0125,0,0,0,0,0,0.0222,0.0223,0.0218,0.0215,0.0201,0.0193,0.0191,0.0189,0.0189,0.0191,0.0176,0.0167,0.0122,0.013,0.0123,0.0133,0.0057,0.0056,0.0055,0.0117,0.0121,0.0125,0,0,0,0,0,0,0.0235,0.0223,0.0217,0.0214,0.0206,0.0194,0.0197,0.0191,0.018,0.0181,0.0161,0.0156,0.0144,0.012,0.0129,0.0106,0.0087,0.0084,0.0137,0.014,0.0143,0.015,0.0119,0,0,0,0,0,0.0236,0.0233,0.022,0.0218,0.0216,0.0205,0.0202,0.0199,0.0187,0.0184,0.017,0.0149,0.0132,0.0123,0.0101,0.0087,0.0051,0.0086,0.0089,0.0092,0.009,0.004,0.0038,0.0051,0.0051,0.0051,0,0,0.0241,0.0232,0.0232,0.022,0.0215,0.022,0.0205,0.0203,0.0209,0.0178,0.0182,0.0159,0.0128,0.0119,0.0111,0.0104,0.0069,0.0091,0.0094,0.009,0.0038,0.0037,0.0036,0.005,0.005,0.005,0,0,0.0256,0.0243,0.025,0.0246,0.0238,0.0231,0.0232,0.0222,0.0221,0.0213,0.0195,0.0178,0.015,0.0137,0.0125,0.0124,0.0085,0.0115,0.014,0.0092,0.0091,0.0089,0.0047,0.0042,0.0119,0.0119,0.0119,0,0.0264,0.0268,0.0251,0.0259,0.0261,0.0239,0.0253,0.0246,0.0231,0.0223,0.0222,0.0173,0.0161,0.0141,0.0152,0.0135,0.0097,0.0137,0.0098,0.0095,0.0093,0.005,0.0043,0.0122,0.0121,0.0121,0.0121,0,0.0288,0.0291,0.0296,0.0299,0.0298,0.0302,0.0293,0.0287,0.0279,0.0266,0.0242,0.0215,0.0185,0.0183,0.0175,0.0151,0.0126,0.0109,0.0096,0.0096,0.005,0.0042,0.0126,0.0125,0.0124,0.0123,0,0,0.0308,0.0313,0.0315,0.0322,0.032,0.0319,0.0326,0.0317,0.0308,0.0291,0.0271,0.0259,0.0232,0.0214,0.0193,0.0164,0.0132,0.0138,0.0134,0.0108,0.0022,0.0057,0.0051,0.0105,0.0104,0.0103,0.0,0,0.0333,0.0355,0.0353,0.0373,0.0383,0.0367,0.0371,0.0357,0.0336,0.0307,0.0273,0.025,0.0246,0.0232,0.0202,0.0141,0.011,0.0161,0.0014,0.0009,0.0051,0.0043,0.0099,-0.0006,-0.0008,-0.001,-0.0011,0,0.0363,0.0369,0.0399,0.0401,0.0405,0.0418,0.0404,0.0406,0.0362,0.034,0.0302,0.0262,0.0223,0.0216,0.0115,0.0144,0.0093,0.0048,0.0043,0.0046,0.0029,-0.0012,-0.0027,-0.0026,-0.0025,-0.0024,-0.0023,0,0.038,0.0401,0.0424,0.0428,0.043,0.0442,0.0448,0.042,0.0407,0.0364,0.0337,0.0268,0.0237,0.0154,0.0081,0.0088,-0.0042,-0.005,-0.007,-0.0069,-0.0098,-0.0096,-0.0124,-0.0124,-0.0123,-0.0123,-0.0123,0,0.0401,0.0416,0.0439,0.0446,0.0473,0.0471,0.0487,0.047,0.043,0.041,0.0363,0.0322,0.0222,0.0137,0.0063,-0.0027,-0.006,-0.0069,-0.0093,-0.0068,-0.0062,-0.0104,-0.0101,-0.0127,-0.0126,-0.0125,-0.0125,0,0.0407,0.0424,0.0447,0.0466,0.0484,0.0504,0.0525,0.0511,0.0489,0.0456,0.0443,0.0349,0.0258,0.0149,0.0012,-0.0033,-0.0133,-0.0155,-0.012,-0.014,-0.0127,-0.0119,-0.0199,-0.0199,-0.0198,-0.0198,-0.0198,0,0.0404,0.0421,0.0465,0.0489,0.0506,0.0547,0.056,0.0547,0.0526,0.0475,0.0441,0.0357,0.0297,0.0123,0.0017,-0.0133,-0.0138,-0.0191,-0.0152,-0.012,-0.0136,-0.0128,-0.0121,-0.0197,-0.0197,-0.0197,-0.0197,0,0.039,0.0416,0.0426,0.0486,0.052,0.0563,0.0585,0.0568,0.0544,0.0518,0.0447,0.0366,0.0265,0.0137,0.003,-0.0078,-0.0161,-0.0188,-0.0189,-0.0153,-0.0119,-0.0133,-0.0126,-0.0196,-0.0196,-0.0196,-0.0196,0,0.0373,0.0389,0.0419,0.0471,0.0521,0.0568,0.0584,0.0568,0.055,0.0486,0.0465,0.0366,0.0301,0.0164,0.0054,-0.0036,-0.0052,-0.0073,-0.008,-0.0083,-0.0004,0.0059,0.0012,0,0,0,0,0,0.0358,0.0384,0.0412,0.0474,0.052,0.057,0.0583,0.0583,0.0563,0.0518,0.0492,0.0404,0.0266,0.0192,0.0109,0.0057,-0.0073,-0.0042,-0.0103,-0.019,-0.0191,-0.0114,0,0,0,0,0,0,0.035,0.0376,0.0399,0.0463,0.0521,0.0578,0.06,0.0585,0.0556,0.0527,0.0446,0.041,0.0261,0.0328,0.0121,0.0091,0.0046,-0.0113,-0.0114,-0.0189,-0.019,-0.0191,-0.0112,0,0,0,0,0]}]]